FENGYUN 1C DEB, 30436

Orbit data source: Space-Track

FENGYUN 1C DEB, 30436 is space debris in SSO originally from a launch on Mon, 10 May 1999 UTC launched from the Taiyaun Space Center, China (TSC). Fengyun 1C debris stems from the Chinese weather satellite Fengyun-1C, which was intentionally destroyed by a Chinese anti-satellite missile in 2007. This event dramatically increased the amount of space debris, with thousands of trackable fragments posing hazards to satellites and human spaceflight. The Fengyun 1C debris cloud has become a focal point in discussions about space sustainability and the need for international regulations to prevent the creation of new debris.

Loading next visibility...
Identifier
30436, 1999-025AEX
Orbit
SSO
Country
Flag of CNCN / PRC
Related business
Manufacturer
Unknown
Mission
Spacecraft
Bus & Motor
Unknown
Mass
Unknown
Launch date (UTC)
1999-05-10 (27 years ago)
Launch vehicle
Unknown
Launch site
Taiyaun Space Center, China (TSC)
Object type
Payload
Rocket body
Debris
Shape & HBR
Unknown shape, 0.1 m
Radar Cross Section
Small (<0.1 m²)

Expand to show TLE details & history
Last TLE update: 19 hours ago

TLE from 19 hours ago
0 FENGYUN 1C DEB
1 30436U 99025AEX 26104.45943310  .00002518  00000-0  10684-2 0  9990
2 30436  98.4203 358.2029 0096546 134.9360  40.3408 14.23681077981825
Epoch: 2026-04-14T11:01Z
TLE epoch observation values (Epoch: 2026-04-14T11:01:35.019Z)
Latitude
3.86415°
Longitude
170.74143°
Altitude
762.796 km
Speed
7.5 km/s
True Right ascension
11h 55m 05s
True Declination
3° 50' 28"
Sunlit
Object was in full shadow at epoch
Visualization orbit readout
Latitude
Unknown
Longitude
Unknown
Altitude
Unknown
Speed
Unknown
Apparent Right ascension
Unknown
Apparent Declination
Unknown
Sunlit
N/A
Visualization observer readout
Local Sidereal Time
12:14:59
Azimuth
Unknown
Elevation
Unknown
Doppler factor
Unknown
Orbital elements
Apogee altitude
879.469 km
Perigee altitude
740.671 km
Semi-major axis
7,188.207 km
Eccentricity
0.00965
Inclination
98.4203°
RAAN
358.2029°
Arg. of periapsis
134.936°
True anomaly
41.06359°
Mean anomaly
40.3408°
Eccentric anomaly
40.70153°
Mean motion
3.56133 °/min
Orbital period
101.09 mins
BSTAR
0.0010684
Loading maneuver chart data...
Computing Atmospheric mass density...

Documentation

Showing up to 5 results
|